Hourly Data Report for July 03, 2017

QUALICUM BEACH AIRPORT
BRITISH COLUMBIA

49°20'14.000" N
124°23'38.000" W
58.20 m
1026562
71766
VOQ

Download Data

Hourly Data (July 2017)
Hourly Data Report for July 3, 2017
TIME
LST
Temp Definition
°C
Dew Point Definition
°C
Rel Hum Definition
%
Precip. Amount Definition
mm

Wind Dir Definition
10's deg

Wind Spd Definition
km/h
Visibility Definition
km
Stn Press Definition
kPa
Hmdx Definition


Wind Chill Definition


Weather Definition


00:00 14.8 11.4 81 0.0 27 3   101.15     LegendNANA
01:00 13.0 11.0 88 0.0 25 3   101.17     LegendNANA
02:00 14.8 10.6 76 0.0 29 7   101.18     LegendNANA
03:00 13.4 10.3 82 0.0 27 5   101.22     LegendNANA
04:00 12.6 10.0 84 0.0 26 6   101.28     LegendNANA
05:00 13.8 8.5 70 0.0 32 9   101.34     LegendNANA
06:00 14.6 9.2 70 0.0 32 13   101.38     LegendNANA
07:00 15.1 8.4 64 0.0 32 16   101.42     LegendNANA
08:00 16.1 8.4 61 0.0 32 15   101.45     LegendNANA
09:00 17.0 7.6 54 0.0 33 14   101.48     LegendNANA
10:00 17.8 8.8 55 0.0 34 14   101.50     LegendNANA
11:00 17.7 8.6 55 0.0 35 9   101.50     LegendNANA
12:00 18.1 7.9 51 0.0 35 11   101.50     LegendNANA
13:00 19.5 7.0 44 0.0 36 9   101.50     LegendNANA
14:00 20.0 7.3 44 0.0 36 7   101.47     LegendNANA
15:00 20.7 5.5 37 0.0 36 8   101.44     LegendNANA
16:00 21.1 5.5 36 0.0 5 8   101.40     LegendNANA
17:00 21.0 5.7 37 0.0 35 7   101.36     LegendNANA
18:00 21.6 3.4 30 0.0 35 5   101.32     LegendNANA
19:00 21.4 3.7 31 0.0 34 5   101.29     LegendNANA
20:00 18.6 7.7 49 0.0 30 4   101.27     LegendNANA
21:00 15.4 8.0 61 0.0 23 6   101.26     LegendNANA
22:00 14.5 9.0 69 0.0 22 1   101.24     LegendNANA
23:00 13.4 9.0 75 0.0 25 4   101.24     LegendNANA

Notes on Data Quality.

Legend

  • E = Estimated
  • M = Missing
  • NA = Not Available*
  • [empty] = Indicates an unobserved value
Date modified: